Theta_e
308 307 307 307 306 306 306 305 303 303 303 303 302 301 301 301 300 300 300 300 300 299 299 299 299 299 299 299 299 299 298 299 299 298 298 298 299 298 298 298 298 298 298 298 297 297 297 297 297 297 296 296 296 296 296 296 296 296 296 296 296 295 296 296 296 295 294 294 293
308 308 307 305 305 305 306 305 304 303 303 303 302 302 301 301 301 300 300 300 300 300 299 299 299 299 299 298 298 299 299 299 299 299 298 299 298 298 298 298 298 298 298 298 298 297 297 297 297 297 296 295 296 296 296 295 296 296 296 296 296 295 295 295 295 295 294 293 293
309 308 308 307 306 306 306 304 304 304 303 303 303 302 302 301 301 300 300 300 300 300 300 299 299 299 299 299 299 299 299 299 299 299 299 298 298 298 298 298 298 298 298 298 298 297 297 298 297 297 296 296 296 296 296 295 294 295 296 296 295 294 294 294 294 293 293 293 293
309 308 308 307 307 306 306 305 304 304 303 303 302 302 302 302 301 300 300 300 300 300 299 299 299 299 298 299 299 299 299 299 299 299 298 298 297 298 298 298 298 298 298 298 298 298 297 298 297 297 297 297 297 297 296 295 294 294 295 295 294 293 293 293 293 292 292 292 292
309 308 308 307 307 307 306 305 305 304 303 303 302 302 301 301 301 300 300 299 299 299 300 300 299 299 298 298 299 299 299 299 297 297 298 297 297 297 297 298 298 297 297 297 297 297 297 297 297 297 297 297 297 297 296 295 294 294 294 293 293 293 293 293 293 292 292 292 292
309 308 308 308 307 307 306 306 305 304 303 302 302 301 301 300 300 300 299 299 300 300 300 298 298 298 298 299 298 298 298 298 297 297 298 297 297 297 297 297 298 297 297 297 297 296 296 297 296 296 296 296 296 295 295 294 294 294 294 293 293 293 293 293 292 292 291 291 290
308 307 307 306 306 306 306 305 304 304 303 302 302 301 300 300 300 300 300 299 299 299 298 297 297 298 298 298 298 298 298 297 298 298 298 297 297 297 297 297 297 297 297 296 296 296 296 297 296 296 295 294 294 294 293 293 294 294 294 293 292 292 292 293 292 291 290 289 288
307 306 306 305 305 305 305 304 304 303 303 302 301 301 301 301 300 300 300 300 299 298 298 297 298 298 298 298 298 297 297 297 297 297 298 297 297 297 297 297 296 296 296 295 296 296 296 296 296 296 296 295 295 294 293 293 294 294 294 293 292 291 292 292 292 290 289 288 288
306 305 304 304 304 304 304 303 303 303 302 302 301 301 301 301 300 300 300 299 298 298 298 298 298 298 299 298 298 297 297 297 297 297 297 297 297 297 296 296 296 295 295 295 295 295 296 295 295 296 296 295 295 294 293 292 293 294 294 293 291 290 290 290 290 289 288 287 287
304 303 303 303 303 303 302 303 303 303 302 302 301 301 300 299 299 300 300 299 298 298 298 298 298 298 298 299 298 297 297 297 297 297 297 297 296 297 297 296 296 296 295 295 295 295 295 295 295 295 295 294 294 293 292 292 293 293 292 291 291 290 289 289 288 288 287 287 286
303 302 302 302 302 302 301 302 302 302 302 301 301 300 300 299 300 300 299 299 298 298 298 298 298 298 298 298 298 298 298 297 297 297 296 296 296 297 297 297 297 296 296 295 294 294 295 295 295 294 293 293 292 292 291 291 292 291 291 290 290 289 288 287 287 287 287 286 286
302 301 301 301 301 301 301 302 301 301 301 301 300 300 300 300 300 299 298 298 298 298 298 298 298 298 298 298 298 297 297 297 297 297 296 296 296 297 297 297 297 297 296 295 294 294 294 294 294 294 292 291 291 291 291 291 291 290 290 289 289 289 288 288 287 287 287 286 286
301 300 300 300 301 301 301 301 301 300 300 300 300 300 300 300 299 299 298 298 298 297 297 298 298 298 298 297 298 297 297 297 296 296 296 297 297 297 297 296 296 296 295 294 294 294 294 294 294 293 292 291 291 291 291 291 291 290 289 289 289 289 289 289 288 287 286 285 286
300 300 300 300 300 301 301 300 300 300 300 300 300 300 299 299 298 298 298 298 297 297 297 297 297 297 297 297 297 297 297 297 296 296 297 297 296 296 296 295 295 294 294 294 293 293 294 294 294 293 292 291 290 290 290 291 291 290 290 290 290 290 290 290 289 288 286 286 285
299 299 300 300 300 300 300 300 300 299 299 299 299 299 298 297 297 297 298 298 297 297 296 296 296 296 296 297 296 297 297 297 296 296 296 296 295 295 295 295 294 293 293 293 292 292 293 293 293 292 291 291 290 290 290 290 291 291 291 291 291 291 291 291 289 288 286 286 285
299 299 299 299 300 299 299 299 299 299 299 299 299 298 297 296 296 297 297 298 297 297 296 296 295 295 295 295 295 296 296 296 296 296 295 295 295 294 294 294 294 293 292 292 291 291 291 292 292 292 291 291 290 290 290 290 290 290 291 291 292 291 291 290 288 287 285 285 284
298 298 299 299 299 299 299 299 299 298 298 298 297 297 296 296 296 296 296 296 296 296 296 295 295 295 294 294 294 295 295 295 295 294 295 295 295 294 294 294 293 293 292 292 291 291 290 290 291 291 291 291 291 290 290 290 290 290 291 291 291 290 290 288 287 285 285 284 284
297 298 298 299 299 299 299 298 297 297 297 296 296 296 296 296 296 296 295 296 296 295 295 294 294 295 294 294 294 294 294 294 294 294 295 295 295 294 294 293 293 292 292 292 292 291 290 290 290 290 291 291 291 291 290 290 290 290 290 291 290 289 288 286 285 285 284 284 284
296 297 298 298 298 299 298 297 297 296 296 295 295 295 296 295 295 295 295 295 295 295 295 294 294 294 294 294 293 293 293 294 294 294 294 295 294 294 293 293 292 292 292 292 292 291 291 290 290 290 290 291 290 290 290 290 290 290 290 290 289 288 286 285 284 284 284 284 284
296 297 298 298 298 298 298 297 297 296 296 295 295 295 295 295 295 294 294 294 294 295 295 295 294 294 293 293 293 293 293 294 294 294 294 294 293 293 293 292 292 291 291 291 291 291 291 290 290 290 290 290 290 290 290 290 290 290 289 289 287 286 285 284 284 284 283 283 284
297 297 298 298 298 298 298 297 297 296 295 295 295 294 294 294 294 294 293 293 293 294 295 295 294 293 293 293 293 293 293 293 294 294 293 293 292 292 292 291 291 291 291 291 291 291 290 290 290 290 290 290 290 290 290 290 290 289 288 287 286 285 284 283 283 283 283 283 283
297 298 298 298 298 297 297 297 296 295 295 294 294 294 294 294 294 294 293 292 293 293 294 295 294 294 293 293 293 293 293 292 293 293 292 292 292 291 291 291 290 290 290 290 290 290 290 290 290 290 291 291 290 290 290 290 289 288 287 285 284 284 283 283 283 283 283 283 283
297 298 298 298 297 296 295 295 295 295 295 295 294 294 294 294 294 294 293 292 292 293 294 295 295 294 294 294 294 293 293 292 291 291 291 291 291 290 290 290 290 290 290 290 290 290 290 290 290 291 291 291 291 290 290 289 288 287 286 285 284 283 283 283 283 282 282 282 282
297 297 297 296 295 295 294 294 295 295 295 294 294 293 293 293 293 293 293 292 292 293 294 294 294 294 294 293 293 293 292 292 291 290 290 290 290 289 289 290 290 290 291 291 291 290 290 290 290 290 291 291 291 290 290 289 287 286 285 285 284 284 283 283 283 282 282 282 283
297 296 296 295 294 294 294 295 295 295 294 294 293 293 292 292 292 292 292 292 293 294 294 294 293 293 293 293 292 292 293 293 292 291 290 290 289 289 289 290 290 290 290 290 289 289 289 289 290 291 291 291 290 290 289 287 286 286 285 285 285 284 284 284 283 283 282 283 283
296 295 294 294 293 294 294 295 295 295 294 293 293 293 292 292 292 292 293 293 294 294 294 294 293 293 292 293 292 292 292 292 292 292 291 290 289 289 289 290 290 290 290 289 288 288 288 289 289 290 290 291 290 289 287 286 286 285 285 285 285 285 284 284 284 284 283 283 283
295 294 293 293 294 294 295 295 295 294 293 293 293 292 292 293 293 293 293 294 294 294 294 294 293 292 292 292 292 292 291 291 291 291 291 291 290 289 289 290 290 290 290 289 288 287 288 288 288 289 289 291 290 288 287 286 285 284 284 284 284 284 284 284 284 284 284 284 283
293 293 293 294 294 294 295 295 294 293 293 292 292 293 293 293 294 294 294 294 294 294 293 293 293 292 292 292 292 291 291 290 290 290 290 291 290 290 290 290 290 290 290 288 288 288 288 289 288 288 288 288 289 288 287 286 285 284 283 283 284 284 284 284 284 284 284 284 284
293 293 293 293 294 294 294 294 293 293 292 292 293 293 293 294 294 294 294 294 293 293 293 293 292 291 291 291 291 291 290 289 289 290 290 290 291 291 291 291 291 290 289 288 288 288 289 289 289 288 287 287 288 288 287 286 285 284 283 283 283 284 284 284 284 284 284 284 283
293 293 294 294 294 294 294 294 294 293 293 293 293 293 293 294 293 293 293 293 293 293 292 292 291 291 291 291 290 290 289 289 289 289 290 290 290 291 291 290 291 290 290 288 289 289 289 289 289 288 286 286 286 287 287 286 285 284 284 283 283 283 283 284 284 283 283 283 283
294 294 294 294 293 293 293 294 294 293 293 293 293 293 293 293 293 293 293 293 293 292 291 291 291 291 290 290 289 289 289 289 289 289 290 290 290 290 291 290 290 290 290 289 289 289 289 289 289 288 286 285 285 286 286 285 284 284 284 284 283 283 283 283 283 283 283 283 282
294 294 294 293 293 293 293 293 294 294 294 294 293 293 293 293 293 293 293 292 291 291 290 290 290 290 290 289 288 288 289 289 289 290 290 291 291 291 291 290 290 290 289 289 289 289 290 289 289 288 286 285 285 285 285 285 284 284 284 284 284 284 283 284 283 283 283 283 282
294 294 293 292 292 293 293 293 293 293 294 294 294 294 294 293 293 293 292 291 291 291 291 290 290 290 289 289 289 289 289 289 290 290 290 291 291 291 291 290 290 290 289 289 289 289 289 289 289 288 286 285 285 285 285 284 284 283 283 283 283 283 283 283 283 283 283 283 282
294 293 293 293 292 292 292 292 293 293 293 293 293 293 293 293 292 291 291 290 291 291 291 291 290 290 290 290 290 290 290 289 290 290 291 291 291 291 291 290 291 290 289 289 289 289 289 289 288 288 287 285 285 285 284 284 283 283 283 283 283 283 283 283 283 283 283 283 282
294 294 293 293 293 293 292 292 292 292 292 292 293 293 293 293 292 292 291 290 289 289 289 289 289 289 289 289 290 290 290 290 290 290 291 291 291 291 290 290 291 290 289 288 289 289 289 289 288 288 287 286 286 285 284 283 283 283 282 283 282 282 282 282 282 282 282 282 282
294 294 294 293 293 292 292 292 292 292 292 293 293 293 293 293 292 292 291 289 288 288 288 287 287 287 288 288 289 289 290 291 291 290 290 290 290 290 290 291 291 290 288 288 289 289 289 289 288 288 287 287 287 286 284 283 283 283 282 282 282 282 282 282 282 282 282 281 281
295 295 294 294 293 293 293 293 293 293 293 293 293 293 293 292 291 290 289 288 288 288 288 288 288 289 289 290 290 290 290 291 291 291 290 289 290 290 290 291 291 290 288 288 288 289 289 289 288 288 288 288 287 286 285 284 283 283 282 282 282 282 282 282 282 281 281 281 281
295 295 295 295 294 293 293 293 293 294 294 294 294 293 292 291 290 289 288 287 289 289 289 289 289 290 291 291 291 291 290 290 291 291 290 290 290 290 290 291 291 291 289 288 288 288 289 289 288 288 288 289 288 287 285 284 283 283 282 282 282 282 282 282 282 281 281 281 280
295 295 295 295 295 294 294 293 294 294 294 294 293 292 291 290 289 288 287 287 289 290 290 290 291 291 290 289 290 290 290 289 290 290 291 291 290 290 290 291 292 291 290 288 288 288 288 289 288 288 288 289 288 287 286 285 284 283 283 282 282 282 282 282 281 281 280 280 280
296 296 296 296 295 294 294 294 294 294 293 293 292 291 290 289 288 288 287 286 288 289 290 291 291 290 289 287 289 289 290 289 289 290 290 290 290 290 289 291 292 292 291 289 288 288 288 289 289 288 288 289 289 288 286 285 284 283 283 283 282 282 282 282 281 281 280 280 280
296 296 295 295 294 294 293 293 292 292 292 292 291 290 289 288 287 287 287 287 287 288 289 290 290 289 287 286 288 289 290 290 290 290 290 290 290 290 290 290 292 292 292 290 289 288 288 288 289 289 289 289 289 288 286 285 284 283 283 283 283 282 282 282 281 281 280 280 280
Wind_Speed
10 10 9 9 8 8 8 7 7 7 7 8 8 8 8 8 7 7 6 6 6 6 6 6 6 6 7 8 8 8 8 8 8 8 8 8 8 9 9 8 8 8 8 8 7 7 6 5 4 3 2 2 2 2 2 2 2 3 3 3 2 2 3 4 4 4 4 4 2
12 12 10 9 8 8 7 7 7 7 7 7 7 8 8 7 7 7 7 7 6 6 6 6 6 7 8 9 9 9 9 9 9 9 8 8 9 9 8 8 8 8 8 8 7 6 5 5 5 4 3 2 2 2 2 2 2 3 3 3 2 2 2 3 3 3 3 3 2
13 12 12 11 10 9 8 7 8 8 8 7 6 6 7 6 6 7 7 7 7 7 7 6 7 8 9 10 9 9 9 9 9 9 8 8 8 8 8 8 8 8 7 7 7 6 5 5 4 3 3 3 3 3 3 3 2 3 3 3 2 2 2 2 1 1 1 1 1
14 13 13 13 13 12 10 8 9 10 9 7 7 7 7 6 6 6 7 8 8 8 7 7 8 8 9 9 9 9 9 9 9 9 8 8 8 8 8 8 8 7 7 7 7 6 6 5 4 3 3 3 3 3 3 3 3 3 2 2 1 2 2 1 1 1 1 1 1
14 13 12 12 13 13 11 9 10 10 9 8 7 7 7 6 6 7 7 8 7 7 8 9 8 8 9 9 10 10 9 9 8 8 8 8 8 8 7 8 7 7 7 6 6 6 5 5 3 2 2 2 2 2 2 3 3 3 2 1 1 1 1 2 2 2 2 2 2
14 13 12 11 12 11 9 9 11 11 9 8 9 8 8 6 7 7 7 7 7 8 9 9 9 8 9 10 10 9 9 8 8 8 8 8 8 8 8 8 7 7 6 6 6 5 5 4 3 2 2 2 2 2 2 3 3 3 3 2 2 1 1 2 2 2 2 2 2
13 13 12 12 12 11 10 10 10 10 10 9 11 11 10 9 9 9 9 8 8 8 8 8 8 9 9 10 9 9 9 8 8 8 8 8 8 8 8 7 7 6 6 6 5 5 5 4 3 2 2 2 2 2 3 3 3 3 3 3 2 2 2 3 2 2 2 3 2
12 12 12 12 12 12 12 12 11 11 10 9 11 12 12 12 12 11 10 9 8 8 8 7 9 10 10 10 10 9 9 9 8 8 8 8 8 8 8 7 7 6 6 6 5 5 5 3 3 2 2 2 2 2 3 3 3 3 3 4 3 3 3 3 3 2 2 2 2
10 11 11 12 12 12 13 13 13 12 11 11 12 13 13 13 13 12 11 9 9 9 9 8 10 11 11 11 11 10 9 9 9 8 8 7 8 8 8 7 7 7 6 5 5 5 5 3 3 2 2 2 2 3 3 4 4 4 4 4 4 4 4 3 3 3 2 2 1
11 11 11 11 11 12 12 13 13 13 13 13 14 14 13 13 13 12 11 9 10 10 10 10 11 11 11 11 10 10 9 8 8 8 8 7 8 8 8 7 7 7 7 6 5 5 5 4 3 3 3 2 3 3 4 4 5 5 4 4 4 5 5 4 3 3 2 2 1
12 12 11 11 12 12 12 12 12 12 13 13 14 14 13 13 13 12 11 10 11 11 12 11 12 12 11 10 9 9 8 8 7 7 8 8 8 8 8 8 8 8 7 6 6 5 5 4 4 4 4 3 3 4 4 5 5 6 5 4 5 6 6 5 4 3 2 2 2
12 12 11 11 12 13 12 12 11 11 12 13 14 14 13 13 13 13 13 13 13 13 12 12 12 12 11 9 8 8 8 7 7 8 8 8 8 8 8 8 8 8 7 7 6 5 5 5 5 5 5 4 4 4 5 6 6 6 6 6 6 5 5 5 4 3 2 2 2
12 11 11 11 13 13 13 12 11 11 12 13 14 13 12 12 13 13 14 14 13 12 11 11 11 11 10 8 8 8 7 7 8 7 7 7 7 8 7 7 7 7 7 6 5 5 5 5 6 6 6 6 5 5 6 7 7 7 7 7 6 5 5 4 4 3 2 2 2
12 12 12 12 13 13 12 12 11 11 12 13 13 12 11 11 12 12 13 13 12 11 10 10 9 8 7 8 8 8 8 7 7 7 7 7 7 7 7 7 7 7 6 5 5 5 6 6 6 6 6 6 6 6 6 7 7 7 7 6 6 5 5 4 4 3 3 3 2
12 12 12 13 13 12 12 12 10 11 12 13 12 11 10 10 11 11 11 12 12 10 9 9 7 6 6 7 7 8 8 7 7 7 7 7 7 7 7 7 7 6 5 5 5 5 5 5 6 6 7 7 8 7 7 7 6 6 6 6 5 5 4 4 4 3 3 3 3
13 13 13 13 13 12 12 12 10 10 11 11 11 11 10 10 10 10 11 12 10 9 8 9 7 6 6 6 6 7 7 7 7 7 7 7 7 7 7 7 6 6 5 5 5 5 5 5 6 7 7 8 8 8 8 7 6 6 5 5 5 4 4 4 4 3 3 3 3
14 14 14 14 14 14 13 12 10 10 10 11 11 11 10 10 9 10 10 11 9 9 9 9 8 7 6 6 6 6 7 7 7 7 7 7 7 7 7 7 6 6 6 6 6 6 6 6 6 7 7 8 8 8 8 7 6 6 5 5 5 4 4 4 3 3 3 3 4
15 16 17 16 16 15 14 13 11 10 11 11 11 10 10 10 10 10 10 10 10 10 10 9 8 7 7 7 6 6 6 7 7 7 7 7 7 7 6 6 5 5 6 6 6 6 7 7 7 7 7 7 7 7 7 7 6 6 5 5 5 4 4 4 4 4 4 4 4
16 17 17 17 17 16 14 13 11 11 11 11 10 10 10 10 10 10 9 9 10 10 11 10 8 7 7 8 7 6 6 7 7 7 7 6 6 6 5 5 5 5 6 6 6 7 7 8 8 8 7 7 7 7 7 6 6 5 5 5 5 5 4 4 4 4 4 4 4
15 15 16 16 16 15 13 12 11 11 11 10 11 11 11 11 11 11 10 9 9 10 10 10 8 8 7 8 7 7 6 6 7 7 6 6 5 5 5 5 5 5 6 6 6 7 8 8 9 8 8 8 8 7 7 6 6 6 5 5 5 5 4 4 4 4 4 5 5
15 15 15 15 14 13 12 12 11 11 11 11 12 12 11 11 11 10 10 9 9 9 9 9 9 9 8 8 8 7 6 5 5 5 5 5 5 5 5 5 5 5 6 6 7 7 8 9 9 9 8 8 8 8 7 7 6 6 5 4 4 4 4 4 4 5 5 5 5
16 16 15 14 13 13 12 12 12 12 12 12 12 12 11 11 10 10 9 8 8 9 9 9 9 9 9 8 8 7 6 4 4 4 4 4 4 4 4 4 5 5 6 7 7 8 8 8 9 9 8 8 8 8 7 7 6 6 6 5 5 5 5 4 5 5 5 6 6
16 16 15 14 13 13 12 12 12 12 12 12 12 11 11 10 10 9 9 8 8 9 9 8 8 8 8 8 7 7 6 5 5 4 4 4 4 4 4 4 5 6 7 7 8 8 8 8 8 8 8 8 8 8 8 7 6 6 6 6 6 5 5 5 5 5 5 6 6
13 13 13 11 13 13 13 12 13 13 12 12 12 11 11 10 10 9 9 9 9 9 9 7 7 7 7 6 6 6 6 6 6 5 4 4 4 4 4 4 5 6 6 6 7 8 8 8 8 8 8 7 8 8 7 7 6 6 6 6 6 6 6 6 6 6 6 6 6
11 11 11 11 12 12 13 13 13 12 12 12 11 11 11 11 10 10 9 9 9 9 8 7 6 6 5 5 5 5 6 6 6 5 5 4 4 4 4 4 5 5 5 5 8 9 9 8 7 7 7 7 7 6 6 6 6 6 6 6 6 6 6 6 7 7 7 7 7
9 10 10 11 12 12 13 13 12 12 12 11 11 11 11 11 10 10 10 10 9 8 8 7 6 5 5 5 5 5 4 4 4 5 5 5 5 5 5 4 4 4 4 6 9 11 11 10 9 8 7 7 7 6 6 6 6 6 6 6 6 6 6 6 7 7 7 7 7
9 9 10 10 11 12 12 12 12 11 11 11 11 11 11 10 10 10 10 10 9 8 7 6 6 5 4 4 5 5 4 4 4 4 5 6 6 6 6 5 5 4 5 8 11 12 12 11 11 9 8 7 7 6 6 6 6 6 6 6 6 6 7 7 7 7 7 7 7
10 10 10 11 11 11 11 11 11 11 11 11 11 11 10 10 10 10 10 10 9 8 6 5 5 4 3 3 4 5 5 4 4 4 5 5 6 6 6 5 5 5 7 10 12 13 13 13 12 11 10 7 7 6 6 6 6 6 6 6 6 7 7 7 6 6 6 7 7
11 11 12 12 12 12 11 11 11 11 11 11 11 11 10 10 10 10 10 9 9 8 6 5 4 3 3 4 4 4 5 5 4 4 4 5 6 6 6 6 6 7 8 11 13 14 14 14 14 13 11 9 6 5 5 5 6 6 6 6 6 6 7 6 5 5 6 6 7
12 12 12 12 12 11 11 11 11 11 11 10 11 11 11 10 10 10 9 9 9 8 6 5 5 4 4 5 4 4 4 4 4 4 5 6 6 7 7 7 7 7 9 12 14 15 15 15 14 13 12 10 7 6 5 5 5 6 6 6 6 7 7 7 6 6 6 6 6
12 12 12 12 11 11 11 10 11 11 11 10 11 11 11 10 10 10 9 9 8 7 6 5 6 6 5 4 4 4 4 4 5 5 6 7 7 7 7 8 8 8 9 13 14 15 15 15 14 13 13 12 8 6 5 6 6 6 6 6 7 7 7 7 7 7 7 7 7
12 12 12 12 11 11 10 10 11 11 11 11 11 11 10 10 9 9 8 7 7 6 6 6 6 5 5 4 4 4 5 5 5 6 6 7 7 8 8 8 8 8 10 13 14 15 15 15 14 14 13 12 9 7 6 6 6 6 6 7 8 8 8 7 7 7 8 8 8
13 12 12 12 11 11 10 10 10 10 10 11 10 10 10 9 8 7 6 6 6 6 7 7 6 6 5 5 5 5 5 5 6 6 7 7 7 8 8 7 7 8 10 13 14 15 15 14 14 14 13 13 9 7 7 7 6 6 6 7 7 8 8 8 8 8 8 8 8
13 12 12 12 11 11 11 10 10 10 9 9 9 9 9 8 8 7 6 5 5 5 5 5 5 5 5 5 4 5 5 5 5 6 7 7 7 8 8 7 6 7 10 13 14 15 15 14 14 14 14 13 9 7 7 7 6 6 7 7 7 8 8 8 8 8 8 8 8
13 13 12 12 12 11 11 11 10 10 9 9 9 8 8 8 8 7 6 5 4 3 3 3 3 3 3 3 3 3 4 5 5 6 6 7 7 8 8 8 7 8 10 13 15 15 15 15 14 14 13 11 8 7 7 8 7 8 8 8 8 8 8 8 8 8 8 8 8
13 13 13 12 12 12 11 11 10 10 9 9 9 8 8 7 7 6 5 4 3 3 3 2 2 2 2 3 3 3 4 5 5 6 6 7 7 8 9 10 9 10 11 14 15 16 16 15 15 14 13 11 8 7 7 7 7 8 9 9 9 9 9 9 8 8 8 8 8
12 13 13 13 12 12 11 11 10 10 10 9 9 8 7 7 5 4 4 3 3 3 3 3 3 3 4 4 4 4 4 5 5 6 6 7 8 9 10 10 10 10 11 14 15 16 16 16 15 14 13 10 8 7 7 6 6 7 8 9 9 9 9 8 8 8 8 8 9
12 13 13 13 12 12 11 10 10 10 9 9 8 7 6 5 4 4 3 3 3 3 4 3 4 4 4 4 4 4 4 4 5 6 6 7 8 9 10 11 11 10 11 14 15 16 17 16 16 15 13 10 9 8 7 6 6 7 8 8 8 9 8 7 6 7 8 9 10
12 13 13 13 12 11 10 10 9 9 8 8 7 6 5 4 3 3 3 2 2 3 3 3 4 4 3 3 3 3 4 4 5 6 7 8 9 10 10 11 11 10 11 13 15 16 17 17 17 16 15 11 9 8 7 6 7 7 8 8 7 8 8 7 6 6 7 9 11
11 11 11 11 11 10 9 9 8 7 6 6 6 5 4 3 2 2 2 2 1 1 2 2 3 2 2 2 2 3 4 4 5 6 7 8 9 10 10 11 11 11 11 12 15 16 17 18 17 17 16 11 9 7 6 6 7 7 8 8 7 7 7 7 6 6 7 8 10
9 9 10 9 9 8 8 7 6 5 4 4 4 4 3 2 2 2 2 2 1 1 1 1 1 1 1 2 2 3 4 5 5 6 7 9 9 10 10 11 11 11 11 11 14 16 17 18 18 18 17 12 9 7 6 6 6 8 9 9 8 7 7 7 6 6 7 8 8
Wind_Direction
170 171 172 173 173 175 174 171 168 167 167 168 168 168 168 168 164 160 158 158 155 154 153 154 153 149 147 149 152 154 155 159 162 161 159 156 152 151 151 152 153 153 153 153 155 159 163 167 165 164 162 164 162 159 158 163 174 183 191 196 199 201 206 212 212 208 204 205 206
174 174 173 171 171 171 171 166 166 167 169 169 167 165 164 162 158 156 155 156 154 152 151 151 150 148 149 153 157 159 161 163 163 162 160 156 153 153 154 155 157 157 156 156 159 163 167 171 170 167 162 159 163 163 163 167 182 192 197 198 195 198 208 219 216 209 202 200 192
176 175 174 173 174 173 172 168 169 169 168 164 161 159 158 157 154 153 153 154 153 152 150 150 150 150 153 157 161 164 164 164 163 162 159 157 156 157 158 158 159 159 159 161 165 168 170 172 172 169 165 166 172 170 166 164 183 197 203 196 188 192 203 214 203 190 184 183 169
178 177 177 177 177 175 173 169 168 167 164 159 156 155 154 152 150 150 151 151 152 153 153 152 151 153 157 161 165 166 166 165 163 160 158 157 160 161 162 161 161 163 164 167 170 171 171 172 172 173 173 175 178 175 168 162 179 190 195 182 180 188 192 184 160 148 141 132 123
180 180 179 178 177 174 171 167 165 163 160 155 154 152 151 149 148 149 150 153 155 155 154 152 152 155 160 164 166 166 166 165 162 160 159 159 162 165 167 166 166 166 169 172 173 172 171 172 174 177 178 177 177 170 163 160 171 174 170 154 168 177 174 153 133 124 119 113 109
181 180 178 174 172 169 165 162 160 159 157 155 154 153 152 150 151 152 154 154 152 150 149 150 152 155 160 164 165 166 166 166 165 163 161 161 165 169 171 172 171 171 171 174 174 173 173 175 176 176 175 174 167 153 150 159 167 167 161 153 149 150 144 131 119 117 119 120 120
179 176 174 170 168 165 160 158 157 156 155 155 156 156 154 153 154 153 152 148 145 146 148 151 155 158 161 165 166 167 168 168 167 165 164 164 168 172 175 175 175 176 177 177 176 176 178 182 182 178 173 174 166 154 154 167 172 169 159 146 130 121 113 110 108 112 116 117 117
174 172 170 167 167 164 160 157 156 155 156 157 158 157 155 153 153 151 148 145 146 150 154 157 162 163 165 167 169 169 170 169 168 168 168 168 171 174 177 178 179 181 182 182 182 181 180 185 189 185 179 179 173 163 159 165 169 164 151 134 124 117 113 110 114 115 115 113 113
169 168 166 164 165 162 160 158 157 157 158 158 158 156 154 153 151 150 149 150 153 156 159 162 165 167 169 170 171 171 171 171 169 169 171 173 175 177 179 181 185 186 186 186 187 184 182 183 190 189 185 185 177 164 156 158 159 152 141 129 127 127 126 123 125 125 123 124 132
165 164 163 161 162 160 158 157 157 157 156 155 155 154 153 152 152 153 154 155 156 159 163 165 167 170 172 174 173 173 172 171 169 170 173 177 180 182 183 186 190 190 189 188 189 187 185 187 190 188 184 183 170 157 151 155 151 145 138 133 136 137 135 132 133 137 141 150 177
163 162 161 159 158 156 155 155 156 156 155 153 154 155 155 155 156 157 157 156 159 163 167 168 169 172 174 176 175 174 172 170 170 173 176 182 186 188 189 192 194 194 192 188 187 188 190 193 190 182 173 167 160 153 151 153 147 141 138 140 145 145 144 142 147 152 160 170 196
160 159 158 156 156 155 155 155 156 157 156 155 156 157 159 160 161 160 158 159 162 166 168 169 171 173 174 174 175 173 171 170 172 176 180 185 189 192 194 196 198 197 194 188 187 190 194 197 191 180 170 162 161 158 155 153 147 143 142 146 152 154 154 154 161 167 174 185 204
156 155 154 154 154 155 156 156 157 158 158 158 159 160 162 163 162 160 160 161 164 166 167 170 172 173 173 172 173 173 172 173 176 180 184 187 191 195 198 201 202 201 197 190 191 195 198 197 192 182 172 163 163 160 158 157 152 150 151 154 160 163 164 167 173 176 181 194 208
151 151 152 153 155 157 157 157 158 160 161 162 162 162 162 161 161 161 161 163 164 164 165 167 170 172 172 171 172 173 174 175 179 183 187 189 193 197 200 204 203 202 198 191 194 199 202 198 191 182 172 162 159 159 159 161 158 157 159 162 165 168 171 177 179 180 185 197 209
150 151 153 155 158 159 160 160 160 162 164 164 164 162 160 159 161 162 162 163 162 161 161 164 167 168 169 171 173 174 175 176 180 184 189 193 196 200 203 205 202 200 196 190 193 198 202 198 189 180 171 162 158 158 160 161 160 159 161 165 168 172 178 183 181 183 189 198 211
151 153 156 159 163 164 164 163 163 165 166 166 164 161 159 159 162 163 163 161 160 159 160 163 164 164 166 170 173 175 176 178 183 188 192 196 199 202 205 206 202 197 192 187 188 190 193 193 186 179 171 163 159 158 159 159 157 157 160 164 169 175 181 185 183 185 191 199 215
155 157 161 165 168 169 168 167 166 166 166 165 162 161 160 160 162 163 163 161 158 158 160 162 163 164 167 170 175 178 180 182 187 192 196 200 201 203 204 204 199 193 189 187 186 185 183 183 181 176 170 163 158 157 157 157 157 159 163 167 172 177 180 182 183 184 189 199 213
162 164 166 170 171 171 170 167 165 164 163 160 160 160 160 160 162 163 163 160 157 158 159 160 163 167 171 174 178 183 186 187 191 196 199 202 202 201 200 198 192 189 189 192 190 185 180 175 173 170 166 160 155 153 154 157 159 163 168 172 175 176 176 176 179 185 191 199 208
169 169 169 170 171 170 168 164 161 159 158 157 158 159 161 163 164 163 161 160 158 157 157 158 164 172 179 180 182 185 189 191 194 197 199 200 198 197 195 190 186 187 191 195 191 183 175 169 167 165 161 157 152 151 153 159 163 169 173 176 176 175 174 174 178 186 194 201 205
172 170 169 169 168 165 162 159 156 155 155 156 158 161 164 166 165 163 160 159 157 155 155 157 166 177 184 187 185 187 190 194 196 197 196 194 193 193 191 186 183 186 189 192 187 180 173 166 164 162 160 155 153 154 158 164 170 174 176 176 176 176 175 175 180 187 195 201 204
171 169 168 166 164 160 156 154 153 154 155 158 161 164 165 166 165 163 159 156 153 153 155 161 172 181 186 189 188 187 188 191 195 195 193 190 191 190 187 182 181 183 185 185 182 178 173 167 164 163 161 157 157 160 164 171 175 176 176 176 176 176 177 178 185 191 197 202 204
168 167 165 163 159 155 152 151 153 155 158 161 163 164 164 164 163 160 155 151 152 154 160 169 178 183 186 187 186 183 180 179 186 188 187 187 186 182 178 176 178 179 181 181 179 176 172 168 166 165 164 162 163 167 171 175 176 176 175 176 177 179 181 185 191 197 201 203 206
165 162 159 156 153 151 150 152 155 158 161 162 162 161 161 161 159 156 153 153 156 161 167 175 181 184 184 183 179 174 168 167 172 175 176 177 173 169 168 173 178 180 180 180 177 175 172 170 169 169 168 167 170 173 175 177 176 175 176 178 181 184 187 192 196 201 204 205 208
160 156 152 149 149 150 152 155 158 160 161 160 159 159 159 159 157 157 157 159 162 166 170 174 177 177 176 172 169 165 163 163 165 166 167 169 165 163 165 173 181 183 182 180 179 177 175 171 171 172 173 174 175 176 175 177 177 177 178 181 185 189 193 197 200 203 206 207 209
156 152 149 147 150 152 155 158 160 160 159 158 157 158 158 160 160 161 161 162 165 167 169 168 166 164 163 161 159 160 161 163 163 162 163 166 167 167 169 177 182 183 182 181 182 181 178 173 172 173 176 178 176 175 174 177 179 180 182 184 189 194 198 202 204 207 210 211 212
155 152 151 150 152 154 156 158 158 158 156 155 157 159 161 163 164 163 162 161 163 164 163 161 158 157 157 156 155 157 160 164 165 166 167 170 172 174 178 183 182 183 184 184 183 183 182 176 174 173 175 178 175 174 175 179 182 184 186 188 193 197 202 206 208 209 211 215 216
157 157 156 154 154 155 157 157 156 155 154 155 158 162 164 167 166 163 160 159 159 158 156 156 154 154 155 155 157 161 166 170 173 174 176 175 177 180 183 187 185 185 186 185 184 184 184 181 178 177 177 178 176 177 178 180 182 185 189 193 198 203 207 212 215 215 216 218 220
163 162 160 157 157 158 157 156 154 154 155 158 161 163 165 167 164 160 157 155 154 153 154 156 155 154 156 160 166 170 172 174 177 180 182 183 184 186 188 190 188 188 187 184 185 186 186 185 182 181 179 176 177 178 179 179 180 185 192 198 203 208 211 215 218 220 222 225 225
165 163 161 161 160 159 158 158 157 157 158 159 160 161 163 163 158 155 152 152 153 156 160 161 158 159 164 169 173 174 174 177 179 181 184 188 191 194 195 194 193 190 187 185 187 188 189 188 186 184 182 179 178 179 181 182 183 187 193 200 205 208 211 214 216 220 224 229 231
165 163 162 162 159 158 158 159 158 156 156 156 157 158 158 156 153 153 154 156 160 163 163 162 162 167 171 172 171 173 176 179 181 184 187 191 197 200 200 198 197 192 188 187 189 191 191 190 188 186 184 181 179 180 184 186 188 191 196 202 206 208 211 213 215 219 223 228 232
164 163 161 159 156 155 155 155 153 152 151 152 154 155 154 153 155 157 159 160 161 161 161 160 164 167 169 168 169 173 177 179 183 188 193 196 200 202 203 201 200 195 190 190 192 193 194 193 190 188 185 183 183 185 189 191 193 197 201 204 206 207 209 211 214 217 221 225 229
164 162 159 155 153 151 150 149 148 148 149 150 152 154 154 156 158 159 159 158 156 157 160 164 166 166 165 166 173 178 181 182 188 193 198 201 203 204 203 202 202 199 194 192 195 196 196 195 192 190 187 185 186 190 194 196 199 204 208 210 210 209 209 209 213 217 220 222 226
162 159 155 152 148 146 144 144 144 146 148 150 152 154 155 157 156 155 155 155 157 161 165 169 170 171 171 174 180 185 188 192 195 198 201 204 205 205 204 203 205 202 198 196 198 198 198 197 195 192 189 187 189 193 197 199 203 208 213 215 214 213 213 213 216 218 219 221 223
159 155 151 147 144 142 141 143 144 145 147 150 153 155 156 156 155 156 158 159 162 165 167 170 173 175 176 178 181 185 188 193 198 201 204 206 207 207 206 207 207 202 199 199 200 201 201 199 197 194 191 189 192 196 200 203 207 212 216 218 218 216 216 217 220 222 222 221 222
155 151 148 145 143 143 144 145 146 148 150 153 155 157 158 158 159 160 161 159 156 156 157 159 163 167 173 180 185 186 187 193 200 203 205 206 207 209 211 214 212 204 200 201 203 204 203 202 199 196 193 190 194 199 204 206 212 216 218 220 220 219 218 219 222 223 224 223 223
152 148 145 143 143 145 147 149 151 153 155 157 159 159 160 160 159 157 154 149 146 148 151 151 157 170 182 190 195 197 198 200 202 203 204 205 208 211 215 218 216 208 203 204 206 206 206 205 201 198 194 195 198 202 206 210 216 219 222 223 224 222 220 219 221 222 223 223 222
150 146 144 143 146 148 151 153 156 158 161 162 161 161 160 158 154 151 148 146 151 157 162 164 178 191 199 202 203 206 208 209 207 206 205 205 209 213 217 221 219 213 207 206 208 209 209 207 203 199 197 199 202 205 207 212 218 222 224 227 229 227 223 220 221 222 223 223 222
148 146 145 146 149 152 155 157 160 162 163 163 161 159 156 152 149 149 152 157 162 168 174 182 195 202 207 208 209 212 214 217 216 213 211 210 212 215 218 222 221 216 210 208 210 211 211 210 205 202 200 203 205 206 208 213 219 223 226 229 231 229 226 222 221 223 224 224 223
148 148 148 149 152 154 157 160 162 162 161 159 156 153 150 144 141 145 152 162 168 174 181 193 202 204 204 205 214 220 222 223 222 221 220 219 217 217 219 222 223 219 213 208 210 212 213 213 208 205 204 207 207 208 209 213 219 224 228 231 233 232 229 224 222 225 227 228 227
145 147 148 149 151 153 155 157 156 154 152 150 148 145 139 126 120 128 138 150 164 179 190 201 200 195 190 198 222 232 235 233 228 226 226 226 223 220 220 223 225 222 216 209 210 212 214 215 211 208 207 210 210 209 210 213 220 225 229 232 233 233 230 226 222 224 228 230 229
135 138 140 141 143 145 145 143 138 133 129 128 127 123 116 102 101 116 132 146 161 188 211 221 210 199 199 216 237 248 252 251 240 233 230 230 227 224 222 225 228 227 222 213 211 213 215 217 214 211 209 211 211 210 210 213 221 227 231 233 232 232 232 229 225 225 227 230 230